Weather History for Albert Lea, MN

Change the Weather History Date:

Wednesday, May 13, 2009

  Actual Average Record
Temperature  
Mean Temperature 63 °F -  
Max Temperature 71 °F 65 °F 86 °F (2007)
Min Temperature 55 °F 45 °F 24 °F (1997)
Degree Days  
Heating Degree Days 2    
Growing Degree Days 13 (Base 50)    
Moisture  
Dew Point 57 °F    
Average Humidity 86    
Maximum Humidity 100    
Minimum Humidity 37    
Precipitation  
Precipitation 0.00 in - - ()
Sea Level Pressure  
Sea Level Pressure 29.61 in    
Wind  
Wind Speed 13 mph (SSW)    
Max Wind Speed 21 mph    
Max Gust Speed 32 mph    
Visibility 6 miles    
Events Rain    
Averages and records for this station are not official NWS values.
T = Trace of Precipitation, MM = Missing Value Source: NWS Daily Summary

Daily Weather History Graph

Daily Weather History Graph

Search for Another Location

Airport:

Trip Planner

Search our weather history database for the weather conditions in past years. The results will help you decide how hot, cold, wet, or windy it might be!

Date:

Astronomy

May. 13, 2009 Rise Set
Actual Time 5:50 AM CDT 8:30 PM CDT
Civil Twilight 5:17 AM CDT 9:03 PM CDT
Nautical Twilight 4:35 AM CDT 9:44 PM CDT
Astronomical Twilight 3:48 AM CDT 10:32 PM CDT
Moon 12:12 AM CDT (5/13) 8:57 AM CDT (5/13)
Length of Visible Light 15h 45m
Length of Day
14h 39m
Waning Gibbous, 82% of the Moon is Illuminated
May 13
Waning Gibbous
May 17
Last Quarter
May 24
New
May 30
First Quarter
Jun 7
Full

Hourly Weather History & Observations

Time (CDT) Temp. Dew Point Humidity Pressure Visibility Wind Dir Wind Speed Gust Speed Precip Events Conditions
12:14 AM 55.4 °F 55.4 °F 100% 29.66 in 3.0 mi SE 20.7 mph 32.2 mph N/A   Light Drizzle
12:34 AM 55.4 °F 55.4 °F 100% 29.67 in 4.0 mi SSE 18.4 mph 29.9 mph N/A   Light Drizzle
12:54 AM 55.4 °F 55.4 °F 100% 29.67 in 3.0 mi SSE 20.7 mph 27.6 mph N/A   Light Drizzle
1:14 AM 55.4 °F 55.4 °F 100% 29.67 in 3.0 mi SSE 16.1 mph 24.2 mph N/A   Drizzle
1:34 AM 55.4 °F 55.4 °F 100% 29.67 in 3.0 mi SSE 13.8 mph 26.5 mph N/A   Drizzle
1:54 AM 55.4 °F 55.4 °F 100% 29.67 in 3.0 mi SSE 15.0 mph 20.7 mph N/A   Drizzle
2:14 AM 55.4 °F 55.4 °F 100% 29.67 in 2.5 mi South 8.1 mph 29.9 mph N/A   Drizzle
2:34 AM 55.4 °F 55.4 °F 100% 29.66 in 2.5 mi SSE 17.3 mph 25.3 mph N/A   Drizzle
2:54 AM 55.4 °F 55.4 °F 100% 29.65 in 3.0 mi SSE 18.4 mph 25.3 mph N/A   Light Drizzle
3:14 AM 55.4 °F 55.4 °F 100% 29.64 in 3.0 mi SSE 10.4 mph 21.9 mph N/A Rain Rain
3:34 AM 55.4 °F 55.4 °F 100% 29.64 in 3.0 mi SSE 12.7 mph 23.0 mph N/A   Drizzle
3:54 AM 55.4 °F 55.4 °F 100% 29.64 in 2.5 mi SSE 12.7 mph 23.0 mph N/A   Drizzle
4:14 AM 55.4 °F 55.4 °F 100% 29.65 in 2.0 mi SSE 9.2 mph 23.0 mph N/A   Drizzle
4:34 AM 55.4 °F 55.4 °F 100% 29.65 in 2.5 mi South 8.1 mph 16.1 mph N/A   Drizzle
4:54 AM 55.4 °F 55.4 °F 100% 29.65 in 3.0 mi SSE 10.4 mph 19.6 mph N/A   Light Drizzle
5:14 AM 55.4 °F 55.4 °F 100% 29.63 in 3.0 mi SSE 12.7 mph 19.6 mph N/A   Light Drizzle
5:34 AM 57.2 °F 55.4 °F 94% 29.64 in 4.0 mi South 6.9 mph 16.1 mph N/A   Overcast
5:54 AM 57.2 °F 55.4 °F 94% 29.64 in 3.0 mi South 9.2 mph - N/A   Overcast
6:34 AM 57.2 °F 55.4 °F 94% 29.63 in 2.0 mi South 8.1 mph - N/A   Overcast
6:54 AM 57.2 °F 57.2 °F 100% 29.63 in 2.0 mi South 6.9 mph - N/A Rain Rain
7:14 AM 57.2 °F 57.2 °F 100% 29.63 in 2.0 mi South 6.9 mph 16.1 mph N/A Rain Light Rain
7:34 AM 57.2 °F 57.2 °F 100% 29.62 in 2.5 mi South 9.2 mph - N/A Rain Light Rain
7:54 AM 59.0 °F 57.2 °F 94% 29.61 in 3.0 mi South 4.6 mph - N/A   Overcast
8:14 AM 59.0 °F 57.2 °F 94% 29.57 in 4.0 mi SSE 13.8 mph 19.6 mph N/A Rain Light Rain
8:34 AM 59.0 °F 57.2 °F 94% 29.57 in 3.0 mi South 9.2 mph 16.1 mph N/A   Light Drizzle
8:54 AM 59.0 °F 57.2 °F 94% 29.57 in 4.0 mi South 11.5 mph 17.3 mph N/A   Overcast
9:14 AM 60.8 °F 59.0 °F 94% 29.56 in 5.0 mi SSE 8.1 mph - N/A   Mostly Cloudy
9:34 AM 60.8 °F 60.8 °F 100% 29.55 in 7.0 mi South 5.8 mph - N/A   Scattered Clouds
9:54 AM 60.8 °F 60.8 °F 100% 29.56 in 7.0 mi SSE 10.4 mph - N/A   Scattered Clouds
10:14 AM 60.8 °F 60.8 °F 100% 29.58 in 7.0 mi SSW 5.8 mph - N/A   Scattered Clouds
10:34 AM 62.6 °F 62.6 °F 100% 29.58 in 10.0 mi SSW 4.6 mph - N/A   Scattered Clouds
10:54 AM 62.6 °F 62.6 °F 100% 29.58 in 7.0 mi South 5.8 mph - N/A   Mostly Cloudy
11:14 AM 62.6 °F 62.6 °F 100% 29.60 in 5.0 mi SSW 5.8 mph - N/A   Overcast
11:34 AM 64.4 °F 62.6 °F 94% 29.60 in 5.0 mi SSE 9.2 mph - N/A   Overcast
11:54 AM 66.2 °F 60.8 °F 83% 29.60 in 7.0 mi South 8.1 mph - N/A   Overcast
12:14 PM 66.2 °F 60.8 °F 83% 29.61 in 10.0 mi SSW 9.2 mph - N/A   Overcast
12:34 PM 66.2 °F 60.8 °F 83% 29.60 in 10.0 mi South 6.9 mph - N/A   Overcast
12:54 PM 69.8 °F 60.8 °F 73% 29.60 in 10.0 mi SW 10.4 mph 17.3 mph N/A   Scattered Clouds
1:14 PM 71.6 °F 60.8 °F 69% 29.59 in 10.0 mi SW 8.1 mph - N/A   Scattered Clouds
1:34 PM 71.6 °F 60.8 °F 69% 29.59 in 10.0 mi SSW 6.9 mph - N/A   Mostly Cloudy
1:54 PM 71.6 °F 60.8 °F 69% - 10.0 mi SSW 6.9 mph - N/A   Mostly Cloudy
2:14 PM 71.6 °F 59.0 °F 64% 29.58 in 10.0 mi SW 4.6 mph - N/A   Mostly Cloudy
2:34 PM 71.6 °F 59.0 °F 64% 29.56 in 10.0 mi SSW 6.9 mph - N/A   Scattered Clouds
2:54 PM 71.6 °F 60.8 °F 69% 29.56 in 10.0 mi WSW 4.6 mph - N/A   Mostly Cloudy
3:14 PM 71.6 °F 60.8 °F 69% 29.55 in 10.0 mi WSW 6.9 mph - N/A   Overcast
3:34 PM 71.6 °F 60.8 °F 69% 29.55 in 10.0 mi WSW 8.1 mph - N/A   Mostly Cloudy
3:54 PM 71.6 °F 60.8 °F 69% 29.54 in 10.0 mi WSW 8.1 mph - N/A   Scattered Clouds
4:14 PM 60.8 °F 59.0 °F 94% 29.57 in 2.5 mi NW 11.5 mph 29.9 mph N/A Rain Heavy Rain
4:34 PM 62.6 °F 60.8 °F 94% 29.57 in 10.0 mi WNW 5.8 mph - N/A Rain Light Rain
4:54 PM 62.6 °F 59.0 °F 88% 29.57 in 10.0 mi WNW 11.5 mph - N/A   Clear
5:14 PM 68.0 °F 55.4 °F 64% 29.56 in 10.0 mi NW 10.4 mph - N/A   Clear
5:34 PM 69.8 °F 51.8 °F 53% 29.57 in 10.0 mi WNW 12.7 mph 19.6 mph N/A   Clear
5:54 PM 69.8 °F 46.4 °F 43% 29.56 in 10.0 mi WNW 15.0 mph 24.2 mph N/A   Clear
6:14 PM 69.8 °F 44.6 °F 40% 29.58 in 10.0 mi West 15.0 mph 21.9 mph N/A   Clear
6:34 PM 68.0 °F 42.8 °F 40% 29.59 in 10.0 mi West 16.1 mph 20.7 mph N/A   Clear
6:54 PM 66.2 °F 42.8 °F 43% 29.59 in 10.0 mi West 12.7 mph 19.6 mph N/A   Clear
7:14 PM 66.2 °F 39.2 °F 37% 29.59 in 10.0 mi West 12.7 mph 19.6 mph N/A   Clear
7:34 PM 66.2 °F 35.6 °F 32% 29.59 in 10.0 mi WNW 15.0 mph 21.9 mph N/A   Clear
7:54 PM 64.4 °F 30.2 °F 28% 29.61 in 10.0 mi WNW 25.3 mph 42.6 mph N/A   Clear
8:14 PM 62.6 °F 28.4 °F 27% 29.61 in 10.0 mi WNW 25.3 mph 33.4 mph N/A   Clear
8:34 PM 62.6 °F 26.6 °F 26% 29.62 in 10.0 mi WNW 20.7 mph 29.9 mph N/A   Clear
8:54 PM 60.8 °F 24.8 °F 25% 29.64 in 10.0 mi WNW 16.1 mph 28.8 mph N/A   Clear
9:14 PM 60.8 °F 24.8 °F 25% 29.65 in 10.0 mi West 13.8 mph 23.0 mph N/A   Clear
9:34 PM 59.0 °F 24.8 °F 27% 29.67 in 10.0 mi West 12.7 mph 19.6 mph N/A   Clear
9:54 PM 57.2 °F 23.0 °F 27% 29.68 in 10.0 mi West 12.7 mph - N/A   Clear
10:14 PM 55.4 °F 26.6 °F 33% 29.69 in 10.0 mi West 9.2 mph - N/A   Clear
10:34 PM 55.4 °F 26.6 °F 33% 29.70 in 10.0 mi West 9.2 mph - N/A   Clear
10:54 PM 55.4 °F 28.4 °F 36% 29.71 in 10.0 mi West 11.5 mph 16.1 mph N/A   Clear
11:14 PM 55.4 °F 30.2 °F 38% 29.72 in 10.0 mi West 11.5 mph 17.3 mph N/A   Scattered Clouds
11:34 PM 55.4 °F 30.2 °F 38% 29.72 in 10.0 mi West 9.2 mph - N/A   Scattered Clouds
11:54 PM 53.6 °F 33.8 °F 47% 29.73 in 10.0 mi West 15.0 mph 21.9 mph N/A   Scattered Clouds